Bonaire, Netherlands

2:13 PM AST on April 28, 2017 (GMT -0400)
Flamingo

Weather History for TNCB - October, 2011

Change the Weather History Date:

Friday, October 7, 2011

  Actual Average Record
Temperature  
Mean Temperature 85 °F -  
Max Temperature 89 °F 88 °F 93 °F (2004)
Min Temperature 81 °F 81 °F 73 °F (2012)
Cooling Degree Days 20    
Growing Degree Days 35 (Base 50)    
Moisture  
Dew Point 77 °F    
Average Humidity 78    
Maximum Humidity 84    
Minimum Humidity 65    
Precipitation  
Precipitation 0.00 in - - ()
Sea Level Pressure  
Sea Level Pressure 29.82 in    
Wind  
Wind Speed 8 mph ()    
Max Wind Speed 17 mph    
Max Gust Speed -    
Visibility 8.2 miles    
Events      
Averages and records for this station are not official NWS values.
T = Trace of Precipitation, MM = Missing Value Source: Averaged Metar Reports

Daily Weather History Graph

Daily Weather History Graph

Search for Another Location

Airport or City:

Trip Planner

Search our weather history database for the weather conditions in past years. The results will help you decide how hot, cold, wet, or windy it might be!

Date:

Astronomy

Oct. 07, 2011 Rise Set
Actual Time 6:22 AM AST 6:19 PM AST
Civil Twilight 6:01 AM AST 6:40 PM AST
Nautical Twilight 5:36 AM AST 7:05 PM AST
Astronomical Twilight 5:11 AM AST 7:29 PM AST
Moon 3:26 PM AST (10/7) 2:47 AM AST (10/7)
Length of Visible Light 12h 39m
Length of Day
11h 57m
Waxing Gibbous, 83% of the Moon is Illuminated
Oct 7
Waxing Gibbous
Oct 11
Full
Oct 19
Last Quarter
Oct 26
New
Nov 2
First Quarter

Hourly Weather History & Observations

Time (AST) Temp. Heat Index Dew Point Humidity Pressure Visibility Wind Dir Wind Speed Gust Speed Precip Events Conditions
12:00 AM 82.4 °F 89.5 °F 75.2 °F 79% 29.83 in - North - - N/A   Unknown
1:00 AM 82.4 °F 90.9 °F 77.0 °F 84% 29.83 in - North - - N/A   Unknown
2:00 AM 83 °F - 76 °F 74%  in - Calm Calm - -  
2:00 AM 82.4 °F 90.9 °F 77.0 °F 84% 29.80 in - North - - N/A   Unknown
3:00 AM 82.4 °F 90.9 °F 77.0 °F 84% 29.80 in - North - - N/A   Unknown
4:00 AM 82.4 °F 90.9 °F 77.0 °F 84% 29.80 in - North - - N/A   Unknown
5:00 AM 82 °F - 76 °F 78%  in - Calm Calm - -   Clear
5:00 AM 82.4 °F 90.9 °F 77.0 °F 84% 29.80 in - North - - N/A   Unknown
6:00 AM 82.4 °F 90.9 °F 77.0 °F 84% 29.83 in - North - - N/A   Unknown
7:00 AM 82.4 °F 90.9 °F 77.0 °F 84% 29.83 in - North - - N/A   Unknown
8:00 AM 85 °F - 78 °F 75%  in - Calm Calm - -   Clear
8:00 AM 86.0 °F 99.3 °F 78.8 °F 79% 29.86 in - North - - N/A   Unknown
9:00 AM 86.0 °F 96.9 °F 77.0 °F 74% 29.86 in 6.2 mi East 15.0 mph - N/A   Partly Cloudy
10:00 AM 87.8 °F 102.5 °F 78.8 °F 75% 29.89 in 6.2 mi East 16.1 mph - N/A   Scattered Clouds
1:00 PM 89.6 °F 102.2 °F 77.0 °F 66% 29.83 in - North - - N/A   Unknown
2:00 PM 87 °F - 77 °F 65% 29.84 in 19 mi East 17.3 mph - -   Partly Cloudy
2:00 PM 87.8 °F 99.7 °F 77.0 °F 70% 29.83 in 6.2 mi East 17.3 mph - N/A   Scattered Clouds
3:00 PM 86.0 °F 96.9 °F 77.0 °F 74% 29.80 in 6.2 mi East 16.1 mph - N/A   Scattered Clouds
4:00 PM 86.0 °F 96.9 °F 77.0 °F 74% 29.77 in 6.2 mi East 15.0 mph - N/A   Scattered Clouds
5:00 PM 85 °F - 76 °F 68% 29.79 in 22 mi East 17.3 mph - -   Partly Cloudy
5:00 PM 84.2 °F 92.3 °F 75.2 °F 74% 29.77 in 6.2 mi East 17.3 mph - N/A   Scattered Clouds
6:00 PM 84.2 °F 94.1 °F 77.0 °F 79% 29.77 in - North - - N/A   Scattered Clouds
7:00 PM 84.2 °F 94.1 °F 77.0 °F 79% 29.80 in 6.2 mi East 16.1 mph - N/A   Scattered Clouds
8:00 PM 83 °F - 77 °F 76% 29.85 in 19 mi East 16.1 mph - -   Partly Cloudy
8:00 PM 82.4 °F 90.9 °F 77.0 °F 84% 29.83 in 6.2 mi East 16.1 mph - N/A   Scattered Clouds
9:00 PM 82.4 °F 90.9 °F 77.0 °F 84% 29.86 in 6.2 mi North - - N/A   Scattered Clouds
10:00 PM 82.4 °F 90.9 °F 77.0 °F 84% 29.89 in 6.2 mi North - - N/A   Scattered Clouds
11:00 PM 83 °F - 77 °F 76%  in 6 mi Calm Calm - -   Clear
11:00 PM 82.4 °F 90.9 °F 77.0 °F 84% 29.86 in - North - - N/A   Unknown